CAPE
599 467 304 176 51 13 1 0 0 0 0 0 0 0 0 0 1 1 11 437 628 732 756 695 383 88 13 9 9 9 8 7 8 5 4 2 3 3 4 4 3 3 2
468 413 283 156 47 7 0 0 0 0 0 0 0 0 0 0 0 0 0 0 35 98 171 53 46 25 16 10 6 7 7 6 2 3 4 3 5 3 2 6 8 10 10
374 468 345 191 95 17 2 0 0 0 0 0 0 0 0 0 0 0 0 0 0 0 0 7 3 4 7 4 4 4 3 5 4 1 0 1 0 5 7 5 6 5 4
410 383 556 375 217 52 2 5 0 0 0 0 0 0 0 0 0 0 0 0 0 0 0 0 0 6 5 10 9 6 5 4 4 1 5 5 5 4 0 0 1 2 1
664 449 665 427 192 105 40 2 0 0 0 0 0 0 0 0 0 0 0 0 0 0 0 0 1 3 18 8 8 11 6 11 7 4 3 3 2 7 6 4 4 3 3
881 489 86 86 43 1 0 0 0 0 0 0 0 0 0 0 0 0 0 0 0 0 0 0 0 0 11 28 34 23 17 14 10 11 6 4 4 5 7 5 7 8 7
364 256 10 0 0 0 0 0 0 0 0 0 0 0 0 0 0 0 0 0 0 0 0 0 0 0 0 0 1 7 15 11 10 12 13 6 8 5 4 3 2 4 3
13 1 0 0 0 0 0 0 0 0 0 0 0 0 0 0 0 0 0 0 0 0 0 0 0 0 0 0 0 0 0 4 3 4 6 6 8 15 8 5 8 12 13
0 0 0 0 0 0 1 1 0 0 0 0 0 0 0 0 1 1 0 0 0 0 0 0 0 0 0 0 0 0 0 2 4 4 6 8 10 12 22 24 13 12 12
0 0 0 0 0 0 0 0 0 0 0 1 0 0 0 0 1 1 2 0 0 0 0 0 0 0 0 0 0 0 0 0 0 5 13 10 14 19 23 21 20 15 9
0 0 0 0 1 0 1 0 0 0 0 0 0 0 0 0 0 0 0 1 0 0 0 0 0 0 0 0 0 0 0 0 0 0 4 3 15 18 19 20 23 27 28
1 4 2 1 0 0 0 0 0 0 0 0 0 0 0 0 0 0 0 0 0 2 0 0 0 0 0 0 1 2 0 0 0 0 1 2 9 21 14 18 22 19 17
1 6 3 7 1 1 0 0 0 1 0 0 0 0 0 0 0 0 0 0 1 3 13 5 1 0 0 0 0 1 0 0 0 0 1 0 3 8 7 13 18 17 18
2 7 4 3 1 2 1 0 0 0 0 0 0 0 0 0 0 0 0 0 0 6 4 7 1 0 0 0 0 2 0 0 0 0 0 0 3 4 6 10 12 13 15
2 0 0 0 0 0 0 0 0 0 0 0 0 0 0 0 0 0 0 0 0 0 0 0 4 1 0 0 2 0 0 1 0 0 0 0 2 7 3 4 9 10 13
1 1 4 0 1 0 0 0 0 0 0 0 0 0 0 0 0 0 0 0 0 0 0 0 0 1 0 2 2 0 0 3 3 0 0 0 2 3 4 1 2 8 8
0 0 0 0 0 0 0 0 0 0 0 0 0 0 0 0 0 0 0 0 0 0 0 0 0 0 0 0 2 0 3 4 1 0 0 0 2 3 1 0 0 3 6
0 0 0 0 0 0 0 0 0 0 0 0 0 0 0 0 0 0 0 0 0 0 0 0 0 0 0 0 0 5 16 11 2 1 0 0 2 0 0 0 0 1 1
0 0 0 0 0 0 0 0 0 0 0 0 0 0 0 0 0 0 0 0 0 0 0 0 0 0 0 0 3 8 10 8 10 7 0 9 1 0 1 0 0 0 1
0 0 0 0 0 0 0 0 0 0 0 0 0 0 0 0 0 0 0 0 0 0 0 0 0 0 1 2 1 1 2 9 13 7 0 2 1 2 1 0 0 0 0
0 0 0 0 0 0 0 0 0 0 0 0 0 0 0 0 0 0 0 0 0 0 0 0 0 0 0 1 0 0 1 3 7 0 0 3 0 0 0 0 0 0 0
0 0 0 0 0 0 0 0 0 0 0 0 0 0 0 0 0 0 0 0 0 0 0 0 0 0 0 0 0 0 1 0 1 4 0 1 0 2 0 0 0 0 0
0 0 0 0 0 0 0 0 0 0 0 0 0 0 0 0 0 0 0 0 0 0 0 0 0 0 0 0 0 0 0 0 0 1 0 0 0 0 0 0 0 0 0
0 0 0 0 0 0 0 0 0 0 0 0 0 0 0 0 0 0 0 0 0 0 0 0 0 0 0 0 0 0 0 0 0 0 0 0 0 0 0 0 3 0 0
0 0 0 0 0 0 0 0 0 0 0 0 0 0 0 0 0 0 0 0 1 1 0 0 0 0 0 0 0 0 0 0 0 0 0 0 0 0 0 0 0 0 0
0 0 0 0 0 0 0 0 0 0 0 0 0 0 0 0 0 0 0 0 0 0 0 1 0 0 0 0 0 0 0 0 0 0 0 0 0 0 0 0 0 0 0
CIN
-263 -274 -292 -339 -411 -517 -228 -0 -0 -0 -0 -0 -0 -0 -0 -0 -0 -0 -53 -9 -4 -1 -0 -0 -7 -87 -15 -0 -0 -0 -0 -0 -0 -0 -0 -0 -0 -0 -0 -0 -0 -0 -0
-251 -255 -289 -345 -427 -531 -0 -0 -0 -0 -0 -0 -0 -0 -0 -0 -0 -0 -0 -0 -46 -62 -45 -63 -32 -3 -1 -0 -0 -0 -0 -0 -0 -0 -0 -0 -0 -0 -0 -0 -0 -0 -0
-250 -263 -255 -287 -340 -450 -491 -0 -0 -0 -0 -0 -0 -0 -0 -0 -0 -0 -0 -0 -0 -0 -1 -0 -0 -0 -0 -0 -0 -0 -0 -0 -0 -0 -0 -0 -0 -0 -0 -1 -0 -0 -1
-219 -237 -224 -261 -270 -350 -441 -383 -0 -0 -0 -0 -0 -0 -0 -0 -0 -0 -0 -0 -0 -0 -0 -0 -0 -0 -0 -0 -0 -0 -0 -0 -0 -0 -0 -0 -0 -0 -0 -0 -0 -2 -3
-131 -204 -118 -239 -261 -264 -292 -294 -0 -0 -0 -0 -0 -0 -0 -0 -0 -0 -0 -0 -0 -0 -0 -0 -4 -3 -0 -0 -0 -0 -0 -0 -0 -0 -0 -0 -0 -0 -0 -0 -0 -0 -0
-102 -142 -289 -273 -248 -91 -0 -0 -0 -0 -0 -0 -0 -0 -0 -0 -0 -0 -0 -0 -0 -0 -0 -0 -0 -0 -5 -1 -0 -0 -0 -0 -0 -0 -0 -0 -0 -0 -0 -0 -0 -0 -0
-264 -240 -316 -0 -0 -0 -0 -0 -0 -0 -0 -0 -0 -0 -0 -0 -0 -0 -0 -0 -0 -0 -0 -0 -0 -0 -0 -0 -0 -0 -0 -0 -0 -0 -0 -0 -0 -0 -0 -0 -0 -0 -0
-386 -385 -0 -0 -0 -0 -0 -0 -0 -0 -0 -0 -0 -0 -0 -0 -0 -0 -0 -0 -0 -0 -0 -0 -0 -0 -0 -0 -0 -0 -0 -0 -0 -0 -0 -0 -0 -0 -0 -0 -0 -0 -0
-0 -0 -0 -0 -0 -0 -0 -0 -0 -0 -0 -0 -0 -0 -0 -0 -0 -0 -1 -0 -0 -0 -0 -0 -0 -0 -0 -0 -0 -0 -0 -0 -0 -0 -0 -0 -0 -0 -0 -0 -0 -0 -0
-0 -0 -0 -0 -0 -0 -0 -0 -0 -0 -0 -0 -0 -0 -0 -0 -0 -0 -0 -0 -0 -0 -0 -0 -0 -0 -0 -0 -0 -0 -0 -0 -0 -0 -0 -0 -0 -0 -0 -0 -0 -0 -0
-0 -0 -0 -0 -0 -0 -0 -0 -0 -0 -0 -0 -0 -0 -0 -0 -0 -0 -0 -0 -0 -0 -0 -0 -0 -0 -0 -0 -0 -0 -0 -0 -0 -0 -0 -0 -0 -0 -0 -0 -0 -0 -0
-0 -0 -0 -0 -0 -0 -0 -0 -0 -0 -0 -0 -0 -0 -0 -0 -0 -0 -0 -0 -0 -0 -0 -0 -0 -0 -0 -0 -0 -0 -0 -0 -0 -0 -0 -0 -0 -0 -0 -0 -0 -0 -0
-0 -0 -0 -0 -0 -0 -0 -0 -0 -0 -0 -0 -0 -0 -0 -0 -0 -0 -0 -0 -0 -0 -0 -0 -0 -0 -0 -0 -0 -0 -0 -0 -0 -0 -0 -0 -0 -0 -0 -0 -0 -0 -0
-0 -0 -0 -0 -0 -0 -0 -0 -0 -0 -0 -0 -0 -0 -0 -0 -0 -0 -0 -0 -0 -0 -0 -0 -0 -0 -0 -0 -0 -0 -0 -0 -0 -0 -0 -0 -0 -0 -0 -0 -0 -0 -0
-0 -0 -0 -0 -0 -0 -0 -0 -0 -0 -0 -0 -0 -0 -0 -0 -0 -0 -0 -0 -0 -0 -0 -0 -0 -0 -0 -0 -0 -0 -0 -0 -0 -0 -0 -0 -0 -0 -0 -0 -0 -0 -0
-0 -0 -0 -0 -0 -0 -0 -0 -0 -0 -0 -0 -0 -0 -0 -0 -0 -0 -0 -0 -0 -0 -0 -0 -0 -0 -0 -0 -0 -0 -0 -0 -0 -0 -0 -0 -0 -0 -0 -0 -0 -0 -0
-0 -0 -0 -0 -0 -0 -0 -0 -0 -0 -0 -0 -0 -0 -0 -0 -0 -0 -0 -0 -0 -0 -0 -0 -0 -0 -0 -0 -0 -0 -0 -0 -0 -0 -0 -0 -0 -0 -0 -0 -0 -0 -0
-0 -0 -0 -0 -0 -0 -0 -0 -0 -0 -0 -0 -0 -0 -0 -0 -0 -0 -0 -0 -0 -0 -0 -0 -0 -0 -0 -0 -0 -0 -0 -0 -0 -0 -0 -0 -0 -0 -0 -0 -0 -0 -0
-0 -0 -0 -0 -0 -0 -0 -0 -0 -0 -0 -0 -0 -0 -0 -0 -0 -0 -0 -0 -0 -0 -0 -0 -0 -0 -0 -0 -0 -0 -0 -0 -0 -0 -0 -0 -0 -0 -0 -0 -0 -0 -0
-0 -0 -0 -0 -0 -0 -0 -0 -0 -0 -0 -0 -0 -0 -0 -0 -0 -0 -0 -0 -0 -0 -0 -0 -0 -0 -0 -0 -0 -0 -0 -0 -0 -0 -0 -0 -0 -0 -0 -0 -0 -0 -0
-0 -0 -0 -0 -0 -0 -0 -0 -0 -0 -0 -0 -0 -0 -0 -0 -0 -0 -0 -0 -0 -0 -0 -0 -0 -0 -0 -0 -0 -0 -0 -0 -0 -0 -0 -0 -2 -0 -0 -0 -0 -0 -0
-0 -0 -0 -0 -0 -0 -0 -0 -0 -0 -0 -0 -0 -0 -0 -0 -0 -0 -0 -0 -0 -0 -0 -0 -0 -0 -0 -0 -0 -0 -0 -0 -0 -0 -0 -0 -0 -0 -0 -0 -0 -0 -0
-0 -0 -0 -0 -0 -0 -0 -0 -0 -0 -0 -0 -0 -0 -0 -0 -0 -0 -0 -0 -0 -0 -0 -0 -0 -0 -0 -0 -0 -0 -0 -0 -0 -0 -0 -0 -0 -0 -0 -0 -0 -0 -0
-0 -0 -0 -0 -0 -0 -0 -0 -0 -0 -0 -0 -0 -0 -0 -0 -0 -0 -0 -0 -0 -0 -0 -0 -0 -0 -0 -0 -0 -0 -0 -0 -0 -0 -0 -0 -0 -0 -0 -0 -0 -0 -0
-0 -0 -0 -0 -0 -0 -0 -0 -0 -0 -0 -0 -0 -0 -0 -0 -0 -0 -0 -0 -0 -0 -0 -0 -0 -0 -0 -0 -0 -0 -0 -0 -0 -0 -0 -0 -0 -0 -0 -0 -0 -0 -0
-0 -0 -0 -0 -0 -0 -0 -0 -0 -0 -0 -0 -0 -0 -0 -0 -0 -0 -0 -0 -0 -0 -0 -0 -0 -0 -0 -0 -0 -0 -0 -0 -0 -0 -0 -0 -0 -0 -0 -0 -0 -0 -0
Wind_Speed
7 6 5 5 5 4 4 4 4 4 4 3 2 7 6 6 6 3 3 7 8 15 19 20 20 19 18 17 16 15 14 13 13 13 12 12 11 11 12 12 11 11 11
5 6 6 6 5 6 5 5 5 5 4 4 5 6 7 6 6 7 5 6 12 14 17 20 18 17 16 15 13 13 12 12 11 10 10 11 11 10 10 12 12 12 12
6 9 7 6 6 6 6 4 3 3 3 3 6 7 7 7 7 8 7 8 9 14 15 17 17 14 12 12 12 12 11 10 10 10 8 7 7 8 10 11 11 10 11
9 7 8 9 8 7 7 6 4 4 4 4 5 5 6 7 8 8 9 8 7 7 9 14 19 12 11 12 11 11 14 11 10 9 9 9 9 7 5 4 5 6 7
12 9 7 7 8 7 6 8 3 4 6 4 5 6 5 7 7 7 10 10 9 7 7 16 14 13 10 10 11 10 11 12 11 10 9 9 9 8 8 7 7 6 6
12 7 4 5 7 7 5 5 10 3 6 7 6 6 5 5 6 6 8 8 10 9 8 8 7 9 12 13 13 12 12 11 11 11 10 9 9 8 9 8 8 8 7
8 10 7 6 5 7 10 12 5 10 1 5 5 4 4 2 6 6 8 8 11 10 9 7 5 5 7 16 12 12 13 12 11 11 10 9 8 7 7 8 7 8 8
6 6 7 7 7 4 3 2 2 3 3 3 6 3 2 2 2 4 4 6 10 8 10 9 9 7 5 6 10 11 11 11 10 10 10 8 8 8 8 7 8 8 10
5 6 6 6 6 5 4 4 3 5 4 3 5 3 4 4 4 4 2 5 9 8 7 9 9 8 7 5 8 10 13 10 10 11 10 8 8 8 7 10 11 11 11
5 7 8 7 7 6 7 7 4 5 6 7 6 5 6 4 0 3 3 4 3 5 9 6 7 7 9 6 11 13 15 12 11 12 9 10 7 7 9 10 10 11 11
4 6 9 8 8 7 7 9 8 7 4 2 5 3 4 3 4 4 3 3 2 2 4 6 5 7 7 6 5 11 15 15 12 8 9 9 7 7 10 10 11 11 11
3 4 5 8 8 8 9 8 8 9 8 8 7 8 6 5 4 4 3 3 3 3 4 6 5 5 6 6 9 15 15 13 11 9 9 8 8 9 11 11 11 11 11
3 4 5 4 5 5 7 6 7 8 5 7 9 2 1 3 5 3 4 3 3 3 3 5 5 5 7 6 8 13 15 14 13 10 9 9 8 10 11 12 11 11 12
6 6 7 5 9 8 8 8 7 5 7 9 12 6 5 3 3 2 4 8 3 2 2 4 3 5 5 6 10 15 9 14 13 10 11 10 8 10 12 12 11 12 12
6 6 7 9 9 5 6 6 6 7 6 7 7 8 7 4 4 4 5 3 5 4 2 3 4 5 5 7 10 7 8 14 12 11 10 11 11 11 12 11 11 11 12
8 9 6 6 5 7 5 5 5 5 6 4 5 7 4 4 4 3 4 4 3 3 3 2 2 5 8 7 11 7 9 14 12 11 10 9 9 14 14 11 11 10 10
10 9 7 7 7 6 5 5 4 6 6 6 5 7 6 6 5 4 3 3 3 3 3 2 3 7 8 10 9 6 8 7 7 12 11 10 11 14 13 11 7 8 9
8 9 8 7 6 6 6 6 6 5 7 6 6 6 6 4 5 5 4 6 5 4 4 5 2 4 4 9 8 8 6 6 5 10 11 10 11 12 12 10 7 6 8
8 8 8 6 6 6 6 6 5 5 6 6 6 6 6 6 5 3 3 4 4 4 4 4 4 3 4 8 10 6 6 6 4 10 9 12 11 12 12 7 6 6 6
9 9 8 9 7 7 7 7 6 5 7 6 6 6 5 6 6 6 4 5 4 5 4 4 3 6 5 7 6 7 6 3 4 5 7 8 11 12 11 9 7 6 5
8 9 11 8 9 6 6 8 9 8 9 7 7 7 5 6 5 7 4 5 5 4 4 4 3 3 3 7 6 5 6 5 3 1 2 2 3 5 5 7 7 7 5
7 9 8 10 10 7 12 13 12 9 9 10 9 7 6 9 8 7 7 8 7 7 5 5 5 6 4 6 5 8 7 6 3 3 3 2 5 5 4 3 8 7 6
11 12 11 10 10 8 15 15 14 9 10 11 11 9 7 4 7 4 8 12 11 8 4 6 7 6 6 8 8 8 9 7 3 5 5 3 4 5 4 5 9 7 5
13 12 12 12 11 8 15 16 16 9 8 9 10 10 9 7 6 5 4 5 4 4 4 1 4 5 6 9 11 7 9 5 3 5 3 3 2 3 2 1 10 6 4
11 10 10 12 12 9 19 20 16 10 9 8 8 8 9 8 12 14 7 7 4 4 6 12 12 13 10 13 11 8 5 7 2 2 2 3 3 3 2 2 1 5 4
12 9 10 12 15 12 20 23 16 8 9 8 6 5 15 12 16 14 7 8 6 3 4 4 4 7 7 7 8 3 8 7 3 2 3 4 3 4 2 2 1 1 1
Wind_Direction
180 167 172 169 179 174 180 185 188 185 199 235 103 121 112 108 103 88 72 89 122 120 116 110 107 104 101 101 103 102 100 98 97 91 87 87 86 87 88 83 81 79 75
166 178 179 184 183 187 185 182 186 179 185 164 129 115 112 102 98 96 84 70 75 102 112 108 104 100 100 99 100 96 93 89 87 85 84 85 80 76 82 81 74 65 72
188 177 178 187 196 190 187 170 176 148 143 161 126 124 120 122 121 116 109 100 87 78 93 101 99 93 97 104 103 96 89 82 82 78 70 67 68 72 74 76 70 67 62
184 183 185 190 193 192 184 177 165 154 158 172 136 138 133 130 128 120 114 105 99 97 88 106 109 108 108 107 97 100 99 90 75 73 62 57 58 60 54 48 49 53 56
193 181 199 196 185 183 184 173 143 152 164 178 126 127 131 129 134 125 117 109 97 97 94 73 70 101 99 99 97 97 90 87 80 69 59 56 52 49 52 60 65 50 51
195 179 195 195 176 177 163 160 157 157 164 168 128 123 131 143 134 134 124 115 112 97 91 80 75 62 83 100 103 98 83 75 71 64 55 47 49 46 51 44 36 39 34
186 194 170 162 163 196 189 168 151 153 134 141 119 83 50 85 145 147 141 140 127 124 115 103 92 81 72 78 86 96 97 85 76 62 50 43 42 44 46 37 38 40 30
152 162 158 168 167 145 163 200 67 140 108 250 141 113 123 81 43 137 145 137 132 134 132 123 116 103 96 94 92 88 98 97 89 83 65 49 44 38 29 34 30 34 31
113 129 120 122 112 117 116 106 128 136 133 95 57 145 152 188 124 10 36 147 145 143 133 138 128 121 105 88 79 75 67 75 85 74 67 52 40 44 37 45 36 29 29
112 115 116 111 110 116 124 115 116 129 121 187 121 114 106 133 15 123 43 44 71 153 152 151 134 122 116 111 110 98 79 67 67 65 63 58 55 54 50 44 31 29 22
98 126 127 127 131 126 127 130 130 130 106 117 113 108 38 112 127 150 157 143 96 78 146 119 117 114 105 91 99 103 96 84 79 76 66 56 54 66 66 51 40 27 28
89 96 126 133 131 133 131 136 133 143 159 154 138 141 173 169 160 143 111 124 144 73 93 109 125 126 118 135 133 124 111 111 105 88 78 61 48 70 66 53 43 36 26
133 130 120 121 115 113 112 102 121 118 132 130 114 68 82 141 129 140 115 125 148 130 124 115 136 140 146 147 141 135 128 116 105 94 76 60 43 64 66 57 42 39 29
144 155 132 130 136 133 134 131 121 145 159 137 139 143 141 102 73 104 134 141 131 127 147 141 142 153 138 139 150 142 130 121 117 114 107 90 70 69 61 53 46 37 27
138 131 143 148 141 146 149 141 134 138 130 131 129 130 130 118 99 95 94 106 127 144 162 164 132 144 142 147 149 144 135 133 122 113 95 90 80 95 84 62 44 36 41
153 150 155 147 130 122 113 102 118 120 138 97 129 127 124 119 125 122 146 134 130 148 168 131 107 146 155 148 149 142 137 130 133 124 113 91 73 97 81 62 45 34 35
155 147 143 134 124 120 121 112 129 155 133 133 129 149 152 146 142 135 116 96 118 111 125 90 95 147 147 150 149 149 129 131 146 141 127 112 106 99 93 76 52 45 45
146 141 139 139 136 140 138 146 170 155 136 133 156 153 142 117 122 129 138 144 154 127 123 127 100 133 143 152 149 141 138 134 143 140 132 134 119 102 90 90 79 55 48
138 132 136 140 153 148 143 142 132 137 136 151 145 136 136 130 125 121 127 137 133 123 121 127 146 149 140 153 150 132 146 137 146 145 141 140 121 107 101 82 81 73 60
154 155 161 155 156 157 166 158 145 153 134 130 121 113 127 137 145 146 142 147 142 136 145 136 123 139 146 154 147 151 143 148 156 153 154 137 137 131 120 113 92 77 59
181 167 158 168 152 163 161 167 156 159 132 120 109 112 109 120 148 181 157 176 157 141 144 139 129 117 143 155 167 156 156 148 122 119 139 139 116 112 122 114 98 90 77
169 161 169 161 157 171 167 167 157 147 143 135 126 110 109 105 98 112 140 166 176 168 161 140 174 173 153 155 143 154 153 153 168 179 152 150 143 142 145 147 141 124 98
172 177 180 172 180 178 173 167 148 154 152 147 142 141 132 134 119 125 111 100 87 83 129 164 167 181 155 176 150 153 162 172 161 151 142 158 138 142 172 173 158 151 142
192 189 183 170 177 183 179 165 153 156 156 146 150 152 144 142 155 152 129 94 63 58 45 148 191 173 177 154 164 155 156 148 92 153 155 129 130 142 158 193 174 173 157
189 182 174 174 179 186 175 167 155 160 150 150 151 146 142 139 169 168 146 125 91 34 73 92 102 110 122 137 142 125 141 154 136 167 162 114 143 116 136 185 225 178 167
186 192 192 179 184 177 178 164 151 155 151 146 130 143 158 159 167 165 153 152 133 173 124 66 77 51 63 109 130 134 153 160 127 125 202 112 128 141 174 236 192 350 44